Location: Rounton
(54.4000°N, 1.3500°W)
Time: 01:53:04
(UTC+00:00)

Vanguard 3 - Pass Details

Date: 01 December 2021
Orbit: 508 x 3260 km, 33.3° (Epoch: 19 January)

Event Time Altitude Azimuth Distance (km) Brightness Sun altitude
Rises 05:48:32 0° 236° (WSW) 7,216 11.6 -18.4°
Reaches altitude 10° 05:54:24 10° 228° (SW) 6,088 11.3 -17.6°
Maximum altitude 06:08:58 31° 177° (S) 3,891 10.7 -15.6°
Drops below altitude 10° 06:19:32 10° 123° (ESE) 4,392 12.2 -14.1°
Sets 06:22:56 0° 112° (ESE) 5,018 13.2 -13.6°
